{"data":{"norad_id":64187,"intl_designator":"2025-113T","name":"STARLINK-33934","alt_names":[],"object_type":"PAYLOAD","status":"ACTIVE","operator":null,"country":"US","launch_date":"2025-05-28","launch_site_code":"AFETR","launch_vehicle":null,"mission":null,"orbit_class":"UNKNOWN","rcs_meters":null,"size_class":null,"mass_kg":null,"dimensions":null,"purposes":["comms"],"wikipedia_slug":null,"has_3d_model":false,"image_url":null,"decayed_at":null,"tle_current":{"epoch":"2026-05-25T02:31:04.941984Z","epoch_age_seconds":63217,"freshness":"FRESH","line1":"1 64187U 25113T   26145.10491831  .00014490  00000+0  50014-3 0  9993","line2":"2 64187  53.1588  96.2559 0001270 132.3906 227.7203 15.30216872 56726","mean_motion":15.30216872,"eccentricity":0.000127,"inclination_deg":53.1588,"raan_deg":96.2559,"arg_perigee_deg":132.3906,"mean_anomaly_deg":227.7203,"bstar":0.00050014,"rev_number":5672,"period_min":94.104308111432,"perigee_km":474.29432381637,"apogee_km":476.03506244642,"semimajor_km":6853.3016931314,"source":"CELESTRAK","updated_at":"2026-05-25T13:38:20.313244Z"}}}